SCP
-0 -0 0 0 0 0 0 0 0 0 -0 -0 -0 -0 -0 -0 -0 0 -0 -0 0 0 0 0 0 0 0 0 0 0 0 0 0 0 0 0 0 0 0 0 0 -0 -0 -0 0 0 0 0 0 0 0 0 0 0
-0 -0 -0 0 0 0 0 0 0 -0 -0 -0 0 0 0 0 0 0 -0 0 0 0 0 0 0 0 0 0 0 0 0 0 0 0 0 0 0 0 0 0 0 0 0 0 0 0 0 0 0 0 0 0 0 -0
-0 -0 -0 -0 0 0 0 0 -0 -0 -0 0 0 -0 -0 -0 -0 0 0 0 0 0 0 0 0 0 0 0 0 0 0 0 0 0 0 0 0 0 0 0 0 0 0 0 0 0 0 0 0 0 0 0 0 0
-0 -0 -0 -0 0 0 0 0 -0 -0 -0 -0 -0 -0 -0 0 0 0 0 0 0 0 0 0 0 0 0 0 0 0 0 0 0 0 0 0 0 0 0 0 0 0 0 0 0 0 0 0 0 0 0 0 0 0
-0 -0 -0 -0 -0 -0 0 0 -0 -0 -0 -0 -0 -0 -0 0 0 0 0 0 0 0 0 0 0 0 0 0 0 0 0 0 0 0 0 0 0 0 0 0 0 0 0 0 0 0 0 0 0 0 0 0 0 0
-0 -0 -0 -0 -0 -0 -0 0 0 -0 0 0 0 0 0 0 0 0 0 0 0 0 0 0 0 0 0 0 0 0 0 0 0 0 0 0 0 0 0 0 0 0 0 0 0 0 0 0 0 0 0 0 0 0
-0 -0 -0 -0 -0 -0 -0 -0 -0 0 0 0 0 0 0 0 0 0 0 0 0 0 0 0 0 0 0 0 0 0 0 0 0 0 0 0 0 0 0 0 0 0 0 0 0 0 0 -0 0 0 0 0 0 0
0 0 -0 -0 -0 -0 -0 -0 -0 0 0 0 0 0 0 0 0 0 0 0 0 0 0 0 0 0 0 0 0 0 0 0 0 0 0 0 0 0 0 0 0 0 0 0 0 0 -0 0 -0 -0 0 0 0 0
0 0 0 0 -0 -0 -0 0 0 0 0 0 0 0 0 0 0 0 0 0 0 0 0 0 0 0 0 0 0 -0 0 0 0 0 0 0 0 0 0 0 0 0 0 -0 0 0 0 0 0 -0 -0 -0 0 0
0 0 0 0 0 0 0 0 0 0 0 0 0 0 0 0 0 0 0 0 0 0 0 0 0 0 0 0 0 0 0 0 0 0 0 0 0 0 0 0 0 0 0 0 0 0 0 0 0 0 -0 -0 -0 0
0 0 0 0 0 0 0 0 0 0 0 0 0 0 0 0 0 0 0 0 0 0 0 0 0 0 0 0 0 0 0 0 0 0 0 0 0 0 0 0 0 0 0 0 -0 0 0 0 0 0 0 -0 -0 -0
0 0 0 0 0 0 0 0 0 0 0 0 0 0 0 0 0 0 0 0 0 0 0 0 0 0 0 0 0 0 0 0 0 0 0 0 0 0 0 0 0 0 0 0 0 0 0 0 0 0 0 0 0 -0
0 0 0 0 0 0 0 0 0 0 0 0 0 0 0 0 0 0 0 0 0 0 0 0 0 0 0 0 0 0 0 0 0 0 0 0 0 0 0 0 0 0 0 0 0 0 0 0 0 0 0 0 0 0
0 0 0 0 0 0 0 0 0 0 0 0 0 0 0 0 0 0 0 0 0 0 0 0 0 0 0 0 0 0 0 0 0 0 0 0 0 0 0 0 0 0 0 0 0 0 0 0 0 0 0 0 0 0
0 0 0 0 0 0 0 0 0 0 0 0 0 0 0 0 0 0 0 0 0 0 0 0 0 0 0 0 0 0 0 0 0 0 0 0 0 0 0 0 0 0 0 0 0 0 0 0 0 0 0 0 0 0
0 0 0 0 0 0 0 0 0 0 0 0 0 0 0 0 0 0 0 0 0 0 0 0 0 0 0 0 0 0 0 0 0 0 0 0 0 0 0 0 0 0 0 0 0 0 0 0 0 -0 0 0 0 0
0 0 0 0 0 0 0 0 0 0 0 0 0 0 0 0 0 0 0 0 0 0 0 0 0 0 0 0 0 0 0 0 0 0 0 0 0 0 0 0 0 0 0 0 0 0 0 0 0 0 -0 0 0 0
0 0 0 0 0 0 0 0 0 0 0 0 0 0 0 0 0 0 0 0 0 0 0 0 0 0 0 0 0 0 0 0 0 0 0 0 0 0 0 0 0 0 0 0 0 -0 0 0 0 0 0 0 0 0
0 0 0 0 0 0 0 0 0 0 0 0 0 0 0 0 0 0 0 0 0 0 0 0 0 0 0 0 0 0 0 0 0 0 0 0 0 0 0 0 0 0 0 0 -0 -0 -0 0 0 0 0 0 0 0
0 0 0 0 0 0 0 0 0 0 0 0 0 0 0 0 0 0 0 0 0 0 0 0 0 0 0 0 0 0 0 0 0 0 0 0 0 0 0 0 -0 0 0 -0 -0 -0 0 0 0 0 0 0 0 0
0 0 0 0 0 0 0 0 0 0 0 0 0 0 0 0 0 0 0 0 0 0 0 0 0 0 0 0 0 0 0 0 0 0 0 0 0 0 0 0 0 -0 0 -0 -0 -0 0 0 0 0 0 0 0 0
0 0 0 0 0 0 0 0 0 0 0 0 0 0 0 0 0 0 0 0 0 0 0 0 0 0 0 0 0 0 0 0 0 0 0 -0 0 0 0 0 0 0 0 0 0 0 0 0 0 0 0 0 0 0
0 0 0 0 0 0 0 0 0 0 0 0 0 0 0 0 0 0 0 0 0 0 0 0 0 0 0 0 0 0 0 0 0 0 0 -0 0 0 0 0 0 0 0 0 0 0 0 0 0 0 0 0 0 0
0 0 0 0 0 0 0 0 0 0 0 0 0 0 0 0 0 0 0 0 0 0 0 0 0 0 0 0 0 0 0 0 0 0 0 0 0 0 0 0 0 0 0 0 0 0 0 0 0 0 0 0 0 0
0 0 0 0 0 0 0 -0 0 0 0 0 0 0 0 0 0 0 0 0 0 0 0 0 0 0 0 0 0 0 0 0 0 0 0 0 0 0 0 0 0 0 0 0 0 0 0 0 0 0 0 0 0 0
0 0 0 0 0 0 0 -0 0 0 0 0 0 0 0 0 0 0 0 0 0 0 0 0 0 0 0 0 0 0 0 0 0 0 0 0 0 0 0 0 0 0 0 0 0 0 0 0 0 0 0 0 0 0
0 0 0 0 0 0 -0 0 0 0 0 0 0 0 0 0 0 0 0 0 0 0 0 0 0 0 0 0 0 0 0 0 0 0 0 0 0 0 0 0 0 0 0 0 0 0 0 0 0 0 0 0 0 0
0 0 0 0 0 0 0 0 0 0 0 0 0 0 0 0 0 0 0 0 0 0 0 0 0 0 0 0 0 0 0 0 0 0 0 0 0 0 0 0 0 0 0 0 0 0 0 0 0 0 0 0 0 0
0 0 0 -0 0 0 0 -0 -0 -0 -0 0 0 0 0 0 0 0 0 0 0 0 0 0 0 0 0 0 0 0 0 0 0 0 0 0 0 0 0 0 0 0 0 0 0 0 0 0 0 0 0 0 0 0
-0 0 0 0 0 0 0 -0 -0 0 0 0 0 0 0 0 0 0 0 0 0 0 0 0 0 0 0 0 0 0 0 0 0 0 0 0 0 0 0 0 0 0 0 0 0 0 0 0 0 0 0 0 0 0
0 0 0 0 -0 0 0 0 -0 -0 -0 0 0 0 0 0 0 0 0 0 0 0 0 0 0 0 0 0 0 0 0 0 0 0 0 0 0 0 0 0 0 0 0 0 0 0 0 0 0 0 0 0 0 0
0 -0 0 0 0 0 0 0 0 0 0 0 0 0 0 0 0 0 0 0 0 0 0 0 0 0 0 0 0 0 0 0 0 0 0 0 0 0 0 0 0 0 0 0 0 0 0 0 0 0 0 0 0 0
0 0 0 0 0 0 0 0 0 0 0 0 0 0 0 0 0 0 0 0 0 0 0 0 0 0 0 0 0 0 0 0 0 0 0 0 0 0 0 0 0 0 0 0 0 0 0 0 0 0 0 0 0 0
Wind_Speed_500mb
44 43 44 44 44 45 47 48 49 50 50 51 53 53 53 50 46 43 31 36 34 11 20 4 8 20 16 5 2 14 9 12 14 10 6 5 4 6 7 6 4 11 10 8 4 7 9 51 19 9 19 52 38 36
44 43 43 42 43 45 46 47 47 48 48 49 48 48 49 50 47 44 36 41 38 9 13 29 11 16 36 13 16 8 2 6 2 7 4 3 5 6 3 6 11 5 7 6 9 8 10 16 18 32 42 41 34 39
46 43 43 42 42 44 45 45 46 47 48 48 48 48 47 46 45 42 34 43 39 18 17 5 4 36 10 18 8 9 8 5 1 1 9 2 4 3 5 5 8 13 15 3 4 9 14 12 48 63 69 63 54 30
49 45 44 44 44 45 45 45 45 47 49 50 52 50 48 43 40 34 21 32 41 14 8 5 25 34 34 18 7 19 32 16 9 7 5 5 2 3 5 6 1 7 17 8 9 9 36 15 53 55 63 66 58 13
48 47 45 45 45 46 47 46 45 46 47 49 51 50 46 41 34 22 10 21 36 29 8 25 16 23 48 40 14 21 2 7 6 4 5 7 8 1 5 3 6 5 2 5 8 31 11 33 61 50 50 59 73 42
49 48 47 47 48 48 49 48 47 46 47 48 49 50 45 38 28 15 2 8 25 43 12 8 19 17 50 38 22 30 37 17 5 4 9 9 12 13 5 6 12 14 42 29 18 43 57 50 44 41 43 47 57 68
50 49 47 47 49 50 51 51 49 48 48 49 49 49 42 30 16 6 4 12 32 40 5 16 23 18 37 33 26 32 30 21 10 6 9 7 7 15 6 10 18 33 38 31 28 38 46 51 50 47 49 42 51 62
51 52 49 47 48 50 52 54 54 53 53 55 53 45 29 16 4 3 4 25 35 7 1 1 9 14 27 18 16 27 23 12 7 8 5 9 9 9 7 19 25 19 24 29 27 34 45 46 42 41 40 36 41 53
51 54 54 50 49 51 53 55 56 55 59 60 48 24 10 3 2 6 25 23 6 4 7 4 3 6 16 13 14 16 9 5 8 3 8 2 3 9 13 21 21 25 25 14 18 16 32 30 33 29 24 24 29 42
51 55 57 53 50 51 52 55 58 59 62 56 27 8 3 9 24 19 7 4 3 4 5 8 8 6 6 6 8 10 6 5 5 9 7 6 8 40 43 46 36 19 12 10 12 17 22 29 19 19 14 6 13 23
48 53 58 55 48 49 49 49 55 61 61 46 28 7 25 11 7 4 3 2 2 5 8 10 15 7 10 4 7 7 4 4 5 9 4 6 7 12 32 31 20 13 8 8 7 6 3 19 27 22 26 13 7 14
53 53 58 56 45 45 43 41 51 56 47 47 30 26 13 6 3 2 4 4 6 8 10 10 13 17 11 11 7 6 6 2 12 5 1 7 9 23 33 33 21 13 12 15 8 6 2 16 24 5 25 16 16 4
54 54 55 54 44 43 30 39 47 51 53 22 7 7 6 3 5 8 9 4 4 7 8 8 7 7 8 10 8 4 7 10 9 5 8 10 9 28 39 35 23 11 5 9 14 13 11 10 19 19 6 24 33 25
55 56 54 45 38 31 33 40 46 50 29 9 6 11 7 7 10 9 8 7 15 15 15 15 10 11 12 5 11 8 10 2 8 9 13 7 34 47 43 33 31 22 12 6 10 16 18 24 9 17 17 9 29 47
53 54 51 38 32 33 37 45 46 39 10 9 5 9 11 20 18 14 29 21 28 24 24 11 14 12 7 6 8 5 7 12 12 10 8 20 45 48 44 38 32 26 18 9 7 20 24 28 13 12 13 13 9 39
53 50 40 29 34 38 41 47 42 20 8 9 13 9 21 18 24 18 26 32 36 22 19 13 8 5 11 8 8 17 9 17 9 8 39 26 32 39 42 42 37 32 28 18 12 22 27 26 16 15 11 20 4 9
46 35 36 37 41 41 42 37 10 8 10 9 14 24 41 50 39 50 39 48 51 30 7 8 9 19 2 8 9 10 23 31 35 38 31 28 32 31 45 48 44 40 34 22 16 22 27 26 20 19 20 18 7 8
38 32 31 37 41 43 33 6 8 9 13 18 16 26 27 39 51 60 59 54 55 35 20 13 14 11 13 16 30 32 53 63 65 65 61 62 64 53 46 38 40 47 44 35 31 30 31 31 31 27 21 19 14 5
28 23 24 26 31 32 10 6 7 11 17 22 32 43 41 53 59 56 58 60 59 57 26 11 12 11 22 33 42 77 80 78 80 89 90 94 96 92 90 78 62 56 59 51 44 52 55 45 38 31 29 26 19 13
23 18 17 17 19 11 10 9 9 14 13 15 40 38 37 58 55 52 57 58 56 35 14 9 19 66 77 100 103 101 107 105 91 84 88 89 87 89 100 95 80 70 64 62 57 57 64 55 46 37 35 28 25 26
18 13 12 15 18 13 12 10 11 14 23 16 37 47 45 36 44 55 54 32 16 13 11 41 71 93 112 110 105 99 102 101 92 87 89 88 82 64 78 86 87 74 64 57 59 58 49 49 35 30 32 33 35 29
14 14 18 15 7 8 13 15 14 23 17 25 42 26 21 17 22 19 33 9 9 29 44 69 91 98 103 87 44 45 52 47 53 58 62 63 69 49 65 75 74 70 59 54 53 55 55 45 30 31 32 36 34 30
11 10 6 6 7 8 12 11 10 9 8 10 14 12 10 11 13 29 10 9 28 50 83 84 93 95 85 75 37 51 44 36 35 29 21 14 8 14 45 55 61 63 56 45 47 47 42 35 37 32 33 42 38 32
7 6 5 6 9 9 9 8 11 11 10 9 6 10 9 10 15 7 6 10 48 80 86 94 93 87 85 67 52 48 43 41 33 26 25 25 30 29 27 30 34 44 45 41 44 43 41 39 36 40 48 44 38 37
5 6 6 9 8 7 7 8 8 6 7 7 8 9 9 8 5 5 5 16 69 80 90 91 94 91 78 76 66 43 42 44 38 36 30 33 37 31 30 28 27 29 36 40 44 45 43 43 47 49 47 45 45 47
6 10 12 8 7 9 6 6 6 6 8 7 8 12 8 5 5 8 6 34 63 78 80 84 81 87 90 88 77 78 42 45 52 48 40 29 26 37 37 34 35 31 33 43 49 52 52 45 38 42 46 52 51 55
6 9 13 15 11 9 10 16 24 14 8 7 7 8 7 6 7 8 15 50 72 61 60 70 77 77 80 72 69 61 61 50 51 42 40 43 44 44 46 53 52 55 52 49 45 41 34 43 48 47 51 54 56 54
14 9 10 5 9 17 8 7 7 6 7 10 7 5 4 7 7 17 60 54 43 48 57 54 56 69 64 59 61 71 69 64 65 59 63 65 64 65 65 59 56 55 50 46 43 54 60 54 57 58 60 58 59 61
11 13 11 14 15 13 14 17 11 12 12 8 4 5 11 20 45 78 46 26 20 31 46 48 56 59 62 56 43 63 79 86 89 80 75 67 62 59 67 66 61 57 57 64 63 59 54 51 54 57 55 56 53 52
12 19 10 10 10 11 16 27 21 26 25 35 36 47 64 61 43 21 23 19 30 31 29 32 47 53 53 58 56 47 31 47 58 64 67 63 63 63 70 75 72 70 70 71 70 64 60 62 64 62 60 56 53 55
8 14 11 13 14 20 28 29 41 48 56 59 44 43 50 36 29 10 14 18 12 19 26 39 39 45 48 54 55 58 52 30 14 21 23 25 26 25 25 29 35 37 42 48 54 58 60 61 57 54 53 52 48 47
14 20 11 6 13 24 38 15 10 11 12 10 9 13 9 7 11 11 5 6 8 10 20 31 39 39 40 48 49 49 47 50 47 38 37 37 37 35 36 34 33 32 29 35 42 41 38 39 38 36 34 33 33 34
13 17 18 13 11 10 8 8 8 8 11 9 12 19 27 13 10 7 10 8 5 7 16 25 28 27 31 33 35 34 39 45 47 43 28 18 24 31 33 31 30 33 37 41 41 39 41 40 37 38 38 37 37 36
Wind_Direction_500mb
7 7 8 9 9 8 7 6 7 6 6 9 10 8 8 10 13 15 13 3 358 304 299 182 317 309 321 275 220 317 5 354 6 45 39 315 319 309 320 272 201 165 166 193 133 165 239 358 356 48 312 310 301 204
5 5 6 6 5 5 4 4 4 3 5 7 5 5 4 2 4 6 10 5 352 293 282 299 122 49 354 301 269 313 274 271 184 69 355 340 329 343 338 270 346 60 164 201 164 196 303 330 357 354 352 335 323 261
3 2 2 2 1 360 0 1 2 1 2 1 2 1 359 358 356 356 358 5 7 339 318 15 33 335 47 346 242 254 264 263 224 16 166 186 300 42 311 304 318 346 20 60 86 230 335 353 9 5 9 357 351 269
1 359 358 358 357 357 357 359 359 359 357 355 354 354 352 356 352 352 5 11 20 347 351 295 359 39 25 9 286 256 246 279 286 196 173 142 179 210 262 269 283 258 331 313 292 328 344 235 352 352 356 4 6 337
358 357 355 353 353 353 353 354 355 355 353 350 346 344 342 348 352 353 24 39 34 26 294 292 316 25 18 17 65 55 186 255 273 188 122 219 219 253 270 339 257 253 120 44 278 305 281 309 330 331 345 358 1 355
356 354 351 349 350 350 349 349 350 350 348 345 340 335 332 335 344 339 317 30 4 357 317 325 330 347 7 9 11 15 9 5 359 243 215 223 219 197 207 236 260 271 307 321 283 297 299 307 327 339 334 340 341 348
354 352 349 346 346 347 346 345 344 344 343 340 335 328 323 325 342 13 38 347 340 345 339 313 335 344 360 4 11 358 353 337 302 254 221 219 227 198 174 225 257 279 295 309 322 324 298 297 308 312 329 315 323 329
348 349 345 342 342 343 343 342 341 341 340 338 335 327 320 321 353 104 335 326 326 346 1 51 278 324 360 354 341 341 321 302 262 272 262 220 230 193 227 235 243 263 296 298 301 303 316 300 288 297 305 311 310 324
340 342 341 338 338 339 339 338 338 339 339 339 336 332 344 65 7 318 320 321 313 212 184 150 186 278 339 334 303 323 308 333 297 269 243 191 243 230 224 216 228 265 282 294 290 298 304 315 281 267 282 304 313 330
331 335 337 336 336 336 336 335 334 338 342 344 345 348 351 308 296 294 298 304 289 270 236 235 217 251 281 301 299 322 307 264 313 259 296 216 240 244 255 252 254 217 214 225 275 313 2 355 325 233 241 249 331 326
325 330 332 332 332 333 334 333 333 340 347 354 343 312 321 318 14 191 253 227 252 274 208 243 233 257 280 195 235 238 277 289 300 269 165 266 268 230 213 215 213 205 183 135 175 194 36 18 348 292 196 174 85 344
323 324 326 325 327 328 329 332 334 340 345 328 311 301 318 326 301 37 276 294 203 237 213 207 248 248 267 244 216 239 226 3 249 298 297 262 250 231 215 198 187 164 108 86 75 132 13 46 39 0 205 189 206 335
313 314 318 318 322 324 325 332 334 335 335 326 324 297 295 261 15 205 207 254 284 251 222 229 273 250 240 242 232 198 231 236 293 243 231 230 235 194 184 182 192 197 125 67 47 41 44 62 54 42 236 227 208 217
311 308 313 315 318 314 322 327 328 334 339 313 315 299 182 245 244 201 185 191 297 251 247 244 242 230 232 215 222 210 235 335 252 233 231 224 215 195 198 204 200 193 179 163 48 19 10 354 2 45 29 16 222 215
304 309 313 313 312 312 318 316 320 321 303 274 252 245 237 247 268 276 296 294 304 296 262 267 253 232 233 244 209 235 238 233 220 229 235 235 206 196 205 214 216 218 209 221 332 337 345 345 322 349 340 8 56 219
307 310 315 311 312 317 320 314 315 305 248 244 239 266 269 285 289 291 298 308 324 323 285 243 262 258 241 213 201 212 218 222 217 216 248 254 210 213 217 220 225 221 220 227 293 323 323 332 342 290 297 290 35 81
303 307 310 313 316 322 321 314 296 239 247 238 251 257 266 278 275 287 297 302 309 302 233 226 221 224 305 244 235 214 235 251 245 241 248 225 260 272 251 228 221 216 213 227 268 296 310 317 311 278 277 277 236 98
303 303 309 314 321 329 328 291 265 257 256 252 250 269 274 275 281 287 291 298 297 281 265 231 241 210 226 242 256 256 258 261 258 257 256 257 266 268 236 236 245 238 227 244 258 277 292 292 292 279 256 280 228 217
298 298 305 306 318 331 300 269 243 268 257 271 270 283 283 286 290 290 290 292 291 286 263 233 251 227 243 261 269 273 272 266 261 257 254 249 243 242 245 252 251 244 236 243 254 273 280 279 283 279 249 260 215 195
288 299 302 293 310 316 283 270 252 267 273 284 290 290 298 294 297 298 299 297 291 281 235 235 251 264 270 273 271 269 271 272 269 266 262 257 249 240 237 241 239 232 234 251 261 270 271 271 266 260 245 249 217 191
292 291 290 293 300 240 268 291 262 265 285 273 289 303 297 288 289 295 297 311 254 219 247 272 281 286 284 283 285 280 275 274 269 261 260 264 263 236 229 225 227 230 232 237 245 247 241 240 246 242 232 233 218 187
287 292 302 299 258 258 255 249 259 288 278 271 291 279 274 285 283 294 312 251 254 276 299 299 304 306 308 313 343 341 320 306 313 300 287 272 253 229 218 217 215 223 223 219 221 228 228 225 230 221 221 208 193 181
285 298 283 250 260 250 267 270 259 258 275 277 287 290 270 281 281 311 283 281 288 316 320 323 324 332 332 349 19 0 10 6 7 14 17 30 70 217 211 206 207 207 211 219 206 203 217 223 214 221 204 182 173 176
285 276 253 247 233 269 288 259 247 265 267 267 272 278 291 270 303 287 271 271 321 332 336 339 341 343 350 358 22 7 8 25 32 43 47 75 88 104 139 164 188 199 202 199 199 201 203 203 199 188 178 177 180 187
256 235 226 249 243 250 266 273 260 265 265 261 254 263 266 294 313 289 283 306 331 339 342 343 345 348 347 350 357 14 32 44 44 48 52 69 86 101 118 131 151 167 186 195 196 193 192 180 174 172 178 184 179 177
238 216 209 222 228 196 236 265 271 298 285 266 263 274 302 357 309 273 278 322 336 338 338 338 341 344 354 4 7 16 44 52 71 68 63 67 96 98 102 116 126 128 138 149 155 156 153 153 170 174 177 174 177 172
252 247 238 232 250 281 278 270 277 262 256 259 278 308 359 328 269 257 311 340 333 331 334 341 345 360 2 13 26 36 49 60 75 77 71 78 95 104 111 118 122 127 138 143 143 150 158 163 162 168 166 161 165 164
236 248 223 236 235 238 251 270 263 249 261 259 283 282 264 224 259 329 326 335 332 327 337 348 4 9 22 31 46 59 63 63 78 87 82 80 83 87 97 106 110 115 114 121 133 146 144 139 148 151 148 150 152 152
235 231 239 250 250 239 231 214 242 240 246 271 274 296 269 274 292 305 321 320 321 331 343 353 11 18 26 37 52 65 68 73 78 77 75 73 81 89 102 106 110 112 118 120 124 129 136 138 139 138 137 134 137 143
250 211 227 242 225 228 233 212 236 250 261 275 284 285 287 294 313 312 311 306 320 337 353 13 13 11 16 27 42 56 72 89 90 82 77 75 89 93 90 95 103 106 110 115 119 120 125 127 127 126 122 122 126 135
232 203 231 242 257 253 268 283 284 282 279 278 281 264 268 289 316 304 271 273 313 354 342 358 18 23 26 31 28 37 42 57 127 113 86 57 55 59 62 76 98 116 118 114 111 114 119 122 126 129 131 134 138 145
207 211 220 252 269 286 305 280 275 267 273 260 261 231 236 237 272 285 279 277 287 326 2 3 9 17 39 41 39 42 59 60 52 62 67 68 69 75 78 86 92 98 109 115 119 122 125 128 135 143 150 153 153 156
223 231 234 264 276 288 294 274 270 270 249 256 257 244 238 223 250 285 296 243 201 55 40 35 33 33 39 47 46 59 59 55 55 53 69 93 88 82 80 88 106 109 121 123 120 122 124 126 128 133 142 147 154 161
Wind_Speed_850mb
44 43 44 44 44 45 47 48 49 50 50 51 53 53 53 50 46 43 31 36 34 11 20 4 8 20 16 5 2 14 9 12 14 10 6 5 4 6 7 6 4 11 10 8 4 7 9 51 19 9 19 52 38 36
44 43 43 42 43 45 46 47 47 48 48 49 48 48 49 50 47 44 36 41 38 9 13 29 11 16 36 13 16 8 2 6 2 7 4 3 5 6 3 6 11 5 7 6 9 8 10 16 18 32 42 41 34 39
46 43 43 42 42 44 45 45 46 47 48 48 48 48 47 46 45 42 34 43 39 18 17 5 4 36 10 18 8 9 8 5 1 1 9 2 4 3 5 5 8 13 15 3 4 9 14 12 48 63 69 63 54 30
49 45 44 44 44 45 45 45 45 47 49 50 52 50 48 43 40 34 21 32 41 14 8 5 25 34 34 18 7 19 32 16 9 7 5 5 2 3 5 6 1 7 17 8 9 9 36 15 53 55 63 66 58 13
48 47 45 45 45 46 47 46 45 46 47 49 51 50 46 41 34 22 10 21 36 29 8 25 16 23 48 40 14 21 2 7 6 4 5 7 8 1 5 3 6 5 2 5 8 31 11 33 61 50 50 59 73 42
49 48 47 47 48 48 49 48 47 46 47 48 49 50 45 38 28 15 2 8 25 43 12 8 19 17 50 38 22 30 37 17 5 4 9 9 12 13 5 6 12 14 42 29 18 43 57 50 44 41 43 47 57 68
50 49 47 47 49 50 51 51 49 48 48 49 49 49 42 30 16 6 4 12 32 40 5 16 23 18 37 33 26 32 30 21 10 6 9 7 7 15 6 10 18 33 38 31 28 38 46 51 50 47 49 42 51 62
51 52 49 47 48 50 52 54 54 53 53 55 53 45 29 16 4 3 4 25 35 7 1 1 9 14 27 18 16 27 23 12 7 8 5 9 9 9 7 19 25 19 24 29 27 34 45 46 42 41 40 36 41 53
51 54 54 50 49 51 53 55 56 55 59 60 48 24 10 3 2 6 25 23 6 4 7 4 3 6 16 13 14 16 9 5 8 3 8 2 3 9 13 21 21 25 25 14 18 16 32 30 33 29 24 24 29 42
51 55 57 53 50 51 52 55 58 59 62 56 27 8 3 9 24 19 7 4 3 4 5 8 8 6 6 6 8 10 6 5 5 9 7 6 8 40 43 46 36 19 12 10 12 17 22 29 19 19 14 6 13 23
48 53 58 55 48 49 49 49 55 61 61 46 28 7 25 11 7 4 3 2 2 5 8 10 15 7 10 4 7 7 4 4 5 9 4 6 7 12 32 31 20 13 8 8 7 6 3 19 27 22 26 13 7 14
53 53 58 56 45 45 43 41 51 56 47 47 30 26 13 6 3 2 4 4 6 8 10 10 13 17 11 11 7 6 6 2 12 5 1 7 9 23 33 33 21 13 12 15 8 6 2 16 24 5 25 16 16 4
54 54 55 54 44 43 30 39 47 51 53 22 7 7 6 3 5 8 9 4 4 7 8 8 7 7 8 10 8 4 7 10 9 5 8 10 9 28 39 35 23 11 5 9 14 13 11 10 19 19 6 24 33 25
55 56 54 45 38 31 33 40 46 50 29 9 6 11 7 7 10 9 8 7 15 15 15 15 10 11 12 5 11 8 10 2 8 9 13 7 34 47 43 33 31 22 12 6 10 16 18 24 9 17 17 9 29 47
53 54 51 38 32 33 37 45 46 39 10 9 5 9 11 20 18 14 29 21 28 24 24 11 14 12 7 6 8 5 7 12 12 10 8 20 45 48 44 38 32 26 18 9 7 20 24 28 13 12 13 13 9 39
53 50 40 29 34 38 41 47 42 20 8 9 13 9 21 18 24 18 26 32 36 22 19 13 8 5 11 8 8 17 9 17 9 8 39 26 32 39 42 42 37 32 28 18 12 22 27 26 16 15 11 20 4 9
46 35 36 37 41 41 42 37 10 8 10 9 14 24 41 50 39 50 39 48 51 30 7 8 9 19 2 8 9 10 23 31 35 38 31 28 32 31 45 48 44 40 34 22 16 22 27 26 20 19 20 18 7 8
38 32 31 37 41 43 33 6 8 9 13 18 16 26 27 39 51 60 59 54 55 35 20 13 14 11 13 16 30 32 53 63 65 65 61 62 64 53 46 38 40 47 44 35 31 30 31 31 31 27 21 19 14 5
28 23 24 26 31 32 10 6 7 11 17 22 32 43 41 53 59 56 58 60 59 57 26 11 12 11 22 33 42 77 80 78 80 89 90 94 96 92 90 78 62 56 59 51 44 52 55 45 38 31 29 26 19 13
23 18 17 17 19 11 10 9 9 14 13 15 40 38 37 58 55 52 57 58 56 35 14 9 19 66 77 100 103 101 107 105 91 84 88 89 87 89 100 95 80 70 64 62 57 57 64 55 46 37 35 28 25 26
18 13 12 15 18 13 12 10 11 14 23 16 37 47 45 36 44 55 54 32 16 13 11 41 71 93 112 110 105 99 102 101 92 87 89 88 82 64 78 86 87 74 64 57 59 58 49 49 35 30 32 33 35 29
14 14 18 15 7 8 13 15 14 23 17 25 42 26 21 17 22 19 33 9 9 29 44 69 91 98 103 87 44 45 52 47 53 58 62 63 69 49 65 75 74 70 59 54 53 55 55 45 30 31 32 36 34 30
11 10 6 6 7 8 12 11 10 9 8 10 14 12 10 11 13 29 10 9 28 50 83 84 93 95 85 75 37 51 44 36 35 29 21 14 8 14 45 55 61 63 56 45 47 47 42 35 37 32 33 42 38 32
7 6 5 6 9 9 9 8 11 11 10 9 6 10 9 10 15 7 6 10 48 80 86 94 93 87 85 67 52 48 43 41 33 26 25 25 30 29 27 30 34 44 45 41 44 43 41 39 36 40 48 44 38 37
5 6 6 9 8 7 7 8 8 6 7 7 8 9 9 8 5 5 5 16 69 80 90 91 94 91 78 76 66 43 42 44 38 36 30 33 37 31 30 28 27 29 36 40 44 45 43 43 47 49 47 45 45 47
6 10 12 8 7 9 6 6 6 6 8 7 8 12 8 5 5 8 6 34 63 78 80 84 81 87 90 88 77 78 42 45 52 48 40 29 26 37 37 34 35 31 33 43 49 52 52 45 38 42 46 52 51 55
6 9 13 15 11 9 10 16 24 14 8 7 7 8 7 6 7 8 15 50 72 61 60 70 77 77 80 72 69 61 61 50 51 42 40 43 44 44 46 53 52 55 52 49 45 41 34 43 48 47 51 54 56 54
14 9 10 5 9 17 8 7 7 6 7 10 7 5 4 7 7 17 60 54 43 48 57 54 56 69 64 59 61 71 69 64 65 59 63 65 64 65 65 59 56 55 50 46 43 54 60 54 57 58 60 58 59 61
11 13 11 14 15 13 14 17 11 12 12 8 4 5 11 20 45 78 46 26 20 31 46 48 56 59 62 56 43 63 79 86 89 80 75 67 62 59 67 66 61 57 57 64 63 59 54 51 54 57 55 56 53 52
12 19 10 10 10 11 16 27 21 26 25 35 36 47 64 61 43 21 23 19 30 31 29 32 47 53 53 58 56 47 31 47 58 64 67 63 63 63 70 75 72 70 70 71 70 64 60 62 64 62 60 56 53 55
8 14 11 13 14 20 28 29 41 48 56 59 44 43 50 36 29 10 14 18 12 19 26 39 39 45 48 54 55 58 52 30 14 21 23 25 26 25 25 29 35 37 42 48 54 58 60 61 57 54 53 52 48 47
14 20 11 6 13 24 38 15 10 11 12 10 9 13 9 7 11 11 5 6 8 10 20 31 39 39 40 48 49 49 47 50 47 38 37 37 37 35 36 34 33 32 29 35 42 41 38 39 38 36 34 33 33 34
13 17 18 13 11 10 8 8 8 8 11 9 12 19 27 13 10 7 10 8 5 7 16 25 28 27 31 33 35 34 39 45 47 43 28 18 24 31 33 31 30 33 37 41 41 39 41 40 37 38 38 37 37 36
Wind_Direction_850mb
7 7 8 9 9 8 7 6 7 6 6 9 10 8 8 10 13 15 13 3 358 304 299 182 317 309 321 275 220 317 5 354 6 45 39 315 319 309 320 272 201 165 166 193 133 165 239 358 356 48 312 310 301 204
5 5 6 6 5 5 4 4 4 3 5 7 5 5 4 2 4 6 10 5 352 293 282 299 122 49 354 301 269 313 274 271 184 69 355 340 329 343 338 270 346 60 164 201 164 196 303 330 357 354 352 335 323 261
3 2 2 2 1 360 0 1 2 1 2 1 2 1 359 358 356 356 358 5 7 339 318 15 33 335 47 346 242 254 264 263 224 16 166 186 300 42 311 304 318 346 20 60 86 230 335 353 9 5 9 357 351 269
1 359 358 358 357 357 357 359 359 359 357 355 354 354 352 356 352 352 5 11 20 347 351 295 359 39 25 9 286 256 246 279 286 196 173 142 179 210 262 269 283 258 331 313 292 328 344 235 352 352 356 4 6 337
358 357 355 353 353 353 353 354 355 355 353 350 346 344 342 348 352 353 24 39 34 26 294 292 316 25 18 17 65 55 186 255 273 188 122 219 219 253 270 339 257 253 120 44 278 305 281 309 330 331 345 358 1 355
356 354 351 349 350 350 349 349 350 350 348 345 340 335 332 335 344 339 317 30 4 357 317 325 330 347 7 9 11 15 9 5 359 243 215 223 219 197 207 236 260 271 307 321 283 297 299 307 327 339 334 340 341 348
354 352 349 346 346 347 346 345 344 344 343 340 335 328 323 325 342 13 38 347 340 345 339 313 335 344 360 4 11 358 353 337 302 254 221 219 227 198 174 225 257 279 295 309 322 324 298 297 308 312 329 315 323 329
348 349 345 342 342 343 343 342 341 341 340 338 335 327 320 321 353 104 335 326 326 346 1 51 278 324 360 354 341 341 321 302 262 272 262 220 230 193 227 235 243 263 296 298 301 303 316 300 288 297 305 311 310 324
340 342 341 338 338 339 339 338 338 339 339 339 336 332 344 65 7 318 320 321 313 212 184 150 186 278 339 334 303 323 308 333 297 269 243 191 243 230 224 216 228 265 282 294 290 298 304 315 281 267 282 304 313 330
331 335 337 336 336 336 336 335 334 338 342 344 345 348 351 308 296 294 298 304 289 270 236 235 217 251 281 301 299 322 307 264 313 259 296 216 240 244 255 252 254 217 214 225 275 313 2 355 325 233 241 249 331 326
325 330 332 332 332 333 334 333 333 340 347 354 343 312 321 318 14 191 253 227 252 274 208 243 233 257 280 195 235 238 277 289 300 269 165 266 268 230 213 215 213 205 183 135 175 194 36 18 348 292 196 174 85 344
323 324 326 325 327 328 329 332 334 340 345 328 311 301 318 326 301 37 276 294 203 237 213 207 248 248 267 244 216 239 226 3 249 298 297 262 250 231 215 198 187 164 108 86 75 132 13 46 39 0 205 189 206 335
313 314 318 318 322 324 325 332 334 335 335 326 324 297 295 261 15 205 207 254 284 251 222 229 273 250 240 242 232 198 231 236 293 243 231 230 235 194 184 182 192 197 125 67 47 41 44 62 54 42 236 227 208 217
311 308 313 315 318 314 322 327 328 334 339 313 315 299 182 245 244 201 185 191 297 251 247 244 242 230 232 215 222 210 235 335 252 233 231 224 215 195 198 204 200 193 179 163 48 19 10 354 2 45 29 16 222 215
304 309 313 313 312 312 318 316 320 321 303 274 252 245 237 247 268 276 296 294 304 296 262 267 253 232 233 244 209 235 238 233 220 229 235 235 206 196 205 214 216 218 209 221 332 337 345 345 322 349 340 8 56 219
307 310 315 311 312 317 320 314 315 305 248 244 239 266 269 285 289 291 298 308 324 323 285 243 262 258 241 213 201 212 218 222 217 216 248 254 210 213 217 220 225 221 220 227 293 323 323 332 342 290 297 290 35 81
303 307 310 313 316 322 321 314 296 239 247 238 251 257 266 278 275 287 297 302 309 302 233 226 221 224 305 244 235 214 235 251 245 241 248 225 260 272 251 228 221 216 213 227 268 296 310 317 311 278 277 277 236 98
303 303 309 314 321 329 328 291 265 257 256 252 250 269 274 275 281 287 291 298 297 281 265 231 241 210 226 242 256 256 258 261 258 257 256 257 266 268 236 236 245 238 227 244 258 277 292 292 292 279 256 280 228 217
298 298 305 306 318 331 300 269 243 268 257 271 270 283 283 286 290 290 290 292 291 286 263 233 251 227 243 261 269 273 272 266 261 257 254 249 243 242 245 252 251 244 236 243 254 273 280 279 283 279 249 260 215 195
288 299 302 293 310 316 283 270 252 267 273 284 290 290 298 294 297 298 299 297 291 281 235 235 251 264 270 273 271 269 271 272 269 266 262 257 249 240 237 241 239 232 234 251 261 270 271 271 266 260 245 249 217 191
292 291 290 293 300 240 268 291 262 265 285 273 289 303 297 288 289 295 297 311 254 219 247 272 281 286 284 283 285 280 275 274 269 261 260 264 263 236 229 225 227 230 232 237 245 247 241 240 246 242 232 233 218 187
287 292 302 299 258 258 255 249 259 288 278 271 291 279 274 285 283 294 312 251 254 276 299 299 304 306 308 313 343 341 320 306 313 300 287 272 253 229 218 217 215 223 223 219 221 228 228 225 230 221 221 208 193 181
285 298 283 250 260 250 267 270 259 258 275 277 287 290 270 281 281 311 283 281 288 316 320 323 324 332 332 349 19 0 10 6 7 14 17 30 70 217 211 206 207 207 211 219 206 203 217 223 214 221 204 182 173 176
285 276 253 247 233 269 288 259 247 265 267 267 272 278 291 270 303 287 271 271 321 332 336 339 341 343 350 358 22 7 8 25 32 43 47 75 88 104 139 164 188 199 202 199 199 201 203 203 199 188 178 177 180 187
256 235 226 249 243 250 266 273 260 265 265 261 254 263 266 294 313 289 283 306 331 339 342 343 345 348 347 350 357 14 32 44 44 48 52 69 86 101 118 131 151 167 186 195 196 193 192 180 174 172 178 184 179 177
238 216 209 222 228 196 236 265 271 298 285 266 263 274 302 357 309 273 278 322 336 338 338 338 341 344 354 4 7 16 44 52 71 68 63 67 96 98 102 116 126 128 138 149 155 156 153 153 170 174 177 174 177 172
252 247 238 232 250 281 278 270 277 262 256 259 278 308 359 328 269 257 311 340 333 331 334 341 345 360 2 13 26 36 49 60 75 77 71 78 95 104 111 118 122 127 138 143 143 150 158 163 162 168 166 161 165 164
236 248 223 236 235 238 251 270 263 249 261 259 283 282 264 224 259 329 326 335 332 327 337 348 4 9 22 31 46 59 63 63 78 87 82 80 83 87 97 106 110 115 114 121 133 146 144 139 148 151 148 150 152 152
235 231 239 250 250 239 231 214 242 240 246 271 274 296 269 274 292 305 321 320 321 331 343 353 11 18 26 37 52 65 68 73 78 77 75 73 81 89 102 106 110 112 118 120 124 129 136 138 139 138 137 134 137 143
250 211 227 242 225 228 233 212 236 250 261 275 284 285 287 294 313 312 311 306 320 337 353 13 13 11 16 27 42 56 72 89 90 82 77 75 89 93 90 95 103 106 110 115 119 120 125 127 127 126 122 122 126 135
232 203 231 242 257 253 268 283 284 282 279 278 281 264 268 289 316 304 271 273 313 354 342 358 18 23 26 31 28 37 42 57 127 113 86 57 55 59 62 76 98 116 118 114 111 114 119 122 126 129 131 134 138 145
207 211 220 252 269 286 305 280 275 267 273 260 261 231 236 237 272 285 279 277 287 326 2 3 9 17 39 41 39 42 59 60 52 62 67 68 69 75 78 86 92 98 109 115 119 122 125 128 135 143 150 153 153 156
223 231 234 264 276 288 294 274 270 270 249 256 257 244 238 223 250 285 296 243 201 55 40 35 33 33 39 47 46 59 59 55 55 53 69 93 88 82 80 88 106 109 121 123 120 122 124 126 128 133 142 147 154 161